General Aviation Weather

Text Reports

Enter one or more of the following location identifiers separated by a space:

Zip Code, Four-Character ICAO or Three-Character IATA airport codes.

METAR - Aviation Routine Weather Report
PAII - Egegik, Alaska
Updated at 1:56 PM GMT on July 29, 2016 (5:56 AM AKDT):
METAR PAII 291356Z AUTO 25009KT 10SM -RA SCT012 OVC026 13/12 A3018 RMK AO2 RAB38 SLP221 P0000 T01330122
TAF - Terminal Area Forecast
PAII - Egegik, Alaska
Updated at 1:56 PM GMT on July 29, 2016 (5:56 AM AKDT):
No TAF is currently available for this location.
Decoded:
No decoded TAF is available.
PIREP - Pilot Weather Report
PAII - Egegik, Alaska
Updated at 1:56 PM GMT on July 29, 2016 (5:56 AM AKDT):
No PIREP is currently available for this location.
AIRMET - Airmens Meteorological Information
PAII - Egegik, Alaska
Updated at 1:56 PM GMT on July 29, 2016 (5:56 AM AKDT):
No AIRMET is currently available for this location.
SIGMET - Significant Meteorological Information
PAII - Egegik, Alaska
Updated at 1:56 PM GMT on July 29, 2016 (5:56 AM AKDT):
No SIGMET is currently available for this location.
NOTAM - Notice to Airmen
PAII - Egegik, Alaska
Updated at 1:56 PM GMT on July 29, 2016 (5:56 AM AKDT):
No NOTAM is currently available for this location.
Forecast Area
PAII - Egegik, Alaska
Updated at 1:56 PM GMT on July 29, 2016 (5:56 AM AKDT):
No NOTAM is currently available for this location.
Aviation Weather Maps